Time,TemperatureF,DewpointF,PressureIn,WindDirection,WindDirectionDegrees,WindSpeedMPH,WindSpeedGustMPH,Humidity,HourlyPrecipIn,Conditions,Clouds,dailyrainin,SoftwareType,DateUTC
2013-03-07 00:01:00,31.0,25.0,30.38,NW,308,3.0,3.0,77,0.00,,,0.00,,2013-03-07 06:01:00,
2013-03-07 00:11:00,31.0,25.0,30.38,NW,308,3.0,3.0,77,0.00,,,0.00,,2013-03-07 06:11:00,
2013-03-07 00:21:00,31.0,25.0,30.38,NW,309,3.0,3.0,77,0.00,,,0.00,,2013-03-07 06:21:00,
2013-03-07 00:32:00,30.0,24.0,30.39,West,279,3.0,3.0,77,0.00,,,0.00,,2013-03-07 06:32:00,
2013-03-07 00:42:00,30.0,24.0,30.39,WNW,302,1.0,3.0,77,0.00,,,0.00,,2013-03-07 06:42:00,
2013-03-07 00:51:00,30.0,24.0,30.39,WNW,302,1.0,3.0,77,0.00,,,0.00,,2013-03-07 06:51:00,
2013-03-07 01:01:00,30.0,24.0,30.40,WNW,302,2.0,3.0,78,0.00,,,0.00,,2013-03-07 07:01:00,
2013-03-07 01:11:00,30.0,24.0,30.40,WNW,302,2.0,3.0,78,0.00,,,0.00,,2013-03-07 07:11:00,
2013-03-07 01:21:00,31.0,25.0,30.40,WNW,287,3.0,3.0,78,0.00,,,0.00,,2013-03-07 07:21:00,
2013-03-07 01:32:00,30.0,24.0,30.40,NW,326,1.0,2.0,78,0.00,,,0.00,,2013-03-07 07:32:00,
2013-03-07 01:42:00,30.0,24.0,30.40,NW,326,1.0,2.0,78,0.00,,,0.00,,2013-03-07 07:42:00,
2013-03-07 01:52:00,30.0,24.0,30.40,NW,326,0.0,1.0,78,0.00,,,0.00,,2013-03-07 07:52:00,
2013-03-07 02:02:00,30.0,24.0,30.40,NW,326,0.0,1.0,78,0.00,,,0.00,,2013-03-07 08:02:00,
2013-03-07 02:12:00,30.0,24.0,30.40,NW,326,0.0,1.0,78,0.00,,,0.00,,2013-03-07 08:12:00,
2013-03-07 02:22:00,30.0,24.0,30.40,NW,326,0.0,1.0,78,0.00,,,0.00,,2013-03-07 08:22:00,
2013-03-07 02:33:00,30.0,24.0,30.40,NW,326,0.0,1.0,78,0.00,,,0.00,,2013-03-07 08:33:00,
2013-03-07 02:43:00,30.0,24.0,30.40,NW,326,0.0,1.0,78,0.00,,,0.00,,2013-03-07 08:43:00,
2013-03-07 02:52:00,30.0,24.0,30.40,NW,326,0.0,1.0,79,0.00,,,0.00,,2013-03-07 08:52:00,
2013-03-07 03:03:00,30.0,24.0,30.40,NW,326,0.0,1.0,79,0.00,,,0.00,,2013-03-07 09:03:00,
2013-03-07 03:12:00,30.0,24.0,30.40,NW,326,0.0,1.0,79,0.00,,,0.00,,2013-03-07 09:12:00,
2013-03-07 03:23:00,30.0,24.0,30.40,NW,326,0.0,0.0,79,0.00,,,0.00,,2013-03-07 09:23:00,
2013-03-07 03:33:00,30.0,24.0,30.40,NW,326,0.0,0.0,79,0.00,,,0.00,,2013-03-07 09:33:00,
2013-03-07 03:42:00,30.0,24.0,30.40,NW,326,0.0,0.0,79,0.00,,,0.00,,2013-03-07 09:42:00,
2013-03-07 03:52:00,30.0,24.0,30.40,NW,326,1.0,2.0,79,0.00,,,0.00,,2013-03-07 09:52:00,
2013-03-07 04:03:00,30.0,24.0,30.41,NW,326,2.0,2.0,79,0.00,,,0.00,,2013-03-07 10:03:00,
2013-03-07 04:12:00,30.0,24.0,30.41,NW,326,2.0,2.0,79,0.00,,,0.00,,2013-03-07 10:12:00,
2013-03-07 04:23:00,30.0,24.0,30.41,NW,326,1.0,2.0,79,0.00,,,0.00,,2013-03-07 10:23:00,
2013-03-07 04:33:00,30.0,24.0,30.41,NW,326,0.0,2.0,79,0.00,,,0.00,,2013-03-07 10:33:00,
2013-03-07 04:42:00,30.0,24.0,30.41,NW,326,0.0,2.0,79,0.00,,,0.00,,2013-03-07 10:42:00,
2013-03-07 04:52:00,30.0,24.0,30.41,NW,326,2.0,3.0,79,0.00,,,0.00,,2013-03-07 10:52:00,
2013-03-07 05:03:00,30.0,24.0,30.42,NW,326,2.0,2.0,79,0.00,,,0.00,,2013-03-07 11:03:00,
2013-03-07 05:23:00,30.0,24.0,30.42,NW,326,0.0,0.0,79,0.00,,,0.00,,2013-03-07 11:23:00,
2013-03-07 05:33:00,30.0,24.0,30.42,NW,326,0.0,0.0,79,0.00,,,0.00,,2013-03-07 11:33:00,
2013-03-07 05:42:00,30.0,24.0,30.42,NW,326,0.0,0.0,79,0.00,,,0.00,,2013-03-07 11:42:00,
2013-03-07 05:53:00,30.0,25.0,30.42,NW,326,0.0,0.0,80,0.00,,,0.00,,2013-03-07 11:53:00,
2013-03-07 06:03:00,30.0,25.0,30.43,NW,326,1.0,2.0,80,0.00,,,0.00,,2013-03-07 12:03:00,
2013-03-07 06:12:00,30.0,25.0,30.43,NW,326,1.0,2.0,80,0.00,,,0.00,,2013-03-07 12:12:00,
2013-03-07 06:22:00,30.0,25.0,30.43,NW,326,0.0,0.0,80,0.00,,,0.00,,2013-03-07 12:22:00,
2013-03-07 06:33:00,30.0,25.0,30.44,NW,326,0.0,0.0,81,0.00,,,0.00,,2013-03-07 12:33:00,
2013-03-07 06:42:00,30.0,25.0,30.44,NW,326,0.0,0.0,81,0.00,,,0.00,,2013-03-07 12:42:00,
2013-03-07 06:52:00,30.0,25.0,30.44,NW,326,0.0,0.0,81,0.00,,,0.00,,2013-03-07 12:52:00,
2013-03-07 07:02:00,30.0,25.0,30.44,NW,326,0.0,0.0,82,0.00,,,0.00,,2013-03-07 13:02:00,
2013-03-07 07:12:00,30.0,25.0,30.44,NW,326,0.0,0.0,82,0.00,,,0.00,,2013-03-07 13:12:00,
2013-03-07 07:22:00,31.0,26.0,30.44,NW,326,0.0,1.0,82,0.00,,,0.00,,2013-03-07 13:22:00,
2013-03-07 07:32:00,31.0,26.0,30.46,NW,326,1.0,3.0,83,0.00,,,0.00,,2013-03-07 13:32:00,
2013-03-07 07:42:00,31.0,26.0,30.46,NW,326,1.0,3.0,83,0.00,,,0.00,,2013-03-07 13:42:00,
2013-03-07 07:52:00,31.0,26.0,30.46,NW,326,0.0,1.0,83,0.00,,,0.00,,2013-03-07 13:52:00,
2013-03-07 08:02:00,31.0,26.0,30.46,NW,326,1.0,1.0,82,0.00,,,0.00,,2013-03-07 14:02:00,
2013-03-07 08:12:00,31.0,26.0,30.46,NW,326,1.0,1.0,82,0.00,,,0.00,,2013-03-07 14:12:00,
2013-03-07 08:22:00,31.0,26.0,30.46,NW,326,0.0,1.0,82,0.00,,,0.00,,2013-03-07 14:22:00,
2013-03-07 08:33:00,32.0,27.0,30.46,NW,326,1.0,3.0,82,0.00,,,0.00,,2013-03-07 14:33:00,
2013-03-07 08:42:00,32.0,27.0,30.46,NW,326,1.0,3.0,82,0.00,,,0.00,,2013-03-07 14:42:00,
2013-03-07 08:53:00,32.0,27.0,30.46,NW,326,2.0,2.0,81,0.00,,,0.00,,2013-03-07 14:53:00,
2013-03-07 09:03:00,32.0,27.0,30.46,NW,326,1.0,2.0,80,0.00,,,0.00,,2013-03-07 15:03:00,
2013-03-07 09:12:00,32.0,27.0,30.46,NW,326,1.0,2.0,80,0.00,,,0.00,,2013-03-07 15:12:00,
2013-03-07 09:22:00,32.0,27.0,30.46,NW,326,1.0,1.0,80,0.00,,,0.00,,2013-03-07 15:22:00,
2013-03-07 09:32:00,33.0,27.0,30.47,NNE,21,1.0,1.0,79,0.00,,,0.00,,2013-03-07 15:32:00,
2013-03-07 09:42:00,33.0,27.0,30.47,NNE,21,1.0,1.0,79,0.00,,,0.00,,2013-03-07 15:42:00,
2013-03-07 09:52:00,33.0,27.0,30.47,NNE,21,2.0,3.0,78,0.00,,,0.00,,2013-03-07 15:52:00,
2013-03-07 10:02:00,33.0,26.0,30.48,NE,44,0.0,2.0,76,0.00,,,0.00,,2013-03-07 16:02:00,
2013-03-07 10:12:00,33.0,26.0,30.48,NE,44,0.0,2.0,76,0.00,,,0.00,,2013-03-07 16:12:00,
2013-03-07 10:23:00,33.0,26.0,30.48,NE,44,2.0,2.0,76,0.00,,,0.00,,2013-03-07 16:23:00,
2013-03-07 10:32:00,34.0,27.0,30.47,NNE,22,3.0,3.0,74,0.00,,,0.00,,2013-03-07 16:32:00,
2013-03-07 10:42:00,34.0,27.0,30.47,NNE,22,3.0,3.0,74,0.00,,,0.00,,2013-03-07 16:42:00,
2013-03-07 10:52:00,34.0,26.0,30.47,NE,55,3.0,3.0,73,0.00,,,0.00,,2013-03-07 16:52:00,
2013-03-07 11:02:00,34.0,26.0,30.46,NE,39,2.0,2.0,73,0.00,,,0.00,,2013-03-07 17:02:00,
2013-03-07 11:12:00,34.0,26.0,30.46,NE,39,2.0,2.0,73,0.00,,,0.00,,2013-03-07 17:12:00,
2013-03-07 11:22:00,34.0,26.0,30.46,NE,39,0.0,0.0,73,0.00,,,0.00,,2013-03-07 17:22:00,
2013-03-07 11:33:00,35.0,27.0,30.47,East,98,0.0,1.0,73,0.00,,,0.00,,2013-03-07 17:33:00,
2013-03-07 11:43:00,35.0,27.0,30.47,East,98,0.0,1.0,73,0.00,,,0.00,,2013-03-07 17:43:00,
2013-03-07 11:53:00,35.0,27.0,30.47,ESE,103,3.0,3.0,72,0.00,,,0.00,,2013-03-07 17:53:00,
2013-03-07 12:03:00,36.0,27.0,30.47,SW,228,2.0,2.0,69,0.00,,,0.00,,2013-03-07 18:03:00,
2013-03-07 12:12:00,36.0,27.0,30.47,SW,228,2.0,2.0,69,0.00,,,0.00,,2013-03-07 18:12:00,
2013-03-07 12:22:00,36.0,27.0,30.47,NNE,33,3.0,3.0,69,0.00,,,0.00,,2013-03-07 18:22:00,
2013-03-07 12:32:00,36.0,28.0,30.47,NW,306,1.0,3.0,71,0.00,,,0.00,,2013-03-07 18:32:00,
2013-03-07 12:42:00,36.0,28.0,30.47,NW,306,1.0,3.0,71,0.00,,,0.00,,2013-03-07 18:42:00,
2013-03-07 12:52:00,36.0,27.0,30.47,NNE,30,1.0,2.0,70,0.00,,,0.00,,2013-03-07 18:52:00,
2013-03-07 13:03:00,36.0,27.0,30.45,NNE,28,0.0,3.0,69,0.00,,,0.00,,2013-03-07 19:03:00,
2013-03-07 13:23:00,36.0,27.0,30.45,NE,34,3.0,3.0,69,0.00,,,0.00,,2013-03-07 19:23:00,
2013-03-07 13:34:00,36.0,27.0,30.43,NE,34,0.0,0.0,69,0.00,,,0.00,,2013-03-07 19:34:00,
2013-03-07 13:43:00,36.0,27.0,30.43,NE,34,0.0,0.0,69,0.00,,,0.00,,2013-03-07 19:43:00,
2013-03-07 13:52:00,36.0,26.0,30.43,ESE,117,0.0,2.0,68,0.00,,,0.00,,2013-03-07 19:52:00,
2013-03-07 14:02:00,37.0,27.0,30.42,ESE,117,2.0,3.0,68,0.00,,,0.00,,2013-03-07 20:02:00,
2013-03-07 14:13:00,37.0,27.0,30.42,ESE,117,2.0,3.0,68,0.00,,,0.00,,2013-03-07 20:13:00,
2013-03-07 14:22:00,37.0,27.0,30.42,ESE,117,0.0,2.0,67,0.00,,,0.00,,2013-03-07 20:22:00,
2013-03-07 14:33:00,38.0,27.0,30.41,ESE,117,2.0,2.0,65,0.00,,,0.00,,2013-03-07 20:33:00,
2013-03-07 14:42:00,38.0,27.0,30.41,ESE,117,2.0,2.0,65,0.00,,,0.00,,2013-03-07 20:42:00,
2013-03-07 14:53:00,38.0,28.0,30.41,ESE,117,2.0,2.0,66,0.00,,,0.00,,2013-03-07 20:53:00,
2013-03-07 15:02:00,38.0,27.0,30.42,ESE,117,0.0,1.0,65,0.00,,,0.00,,2013-03-07 21:02:00,
2013-03-07 15:12:00,38.0,27.0,30.42,ESE,117,0.0,1.0,65,0.00,,,0.00,,2013-03-07 21:12:00,
2013-03-07 15:22:00,38.0,28.0,30.42,SSE,151,0.0,0.0,66,0.00,,,0.00,,2013-03-07 21:22:00,
2013-03-07 15:32:00,38.0,27.0,30.42,SSE,151,1.0,3.0,65,0.00,,,0.00,,2013-03-07 21:32:00,
2013-03-07 15:42:00,38.0,27.0,30.42,SSE,151,1.0,3.0,65,0.00,,,0.00,,2013-03-07 21:42:00,
2013-03-07 15:52:00,38.0,27.0,30.42,SSE,151,0.0,1.0,64,0.00,,,0.00,,2013-03-07 21:52:00,
2013-03-07 16:02:00,38.0,28.0,30.42,NE,52,2.0,3.0,66,0.00,,,0.00,,2013-03-07 22:02:00,
2013-03-07 16:12:00,38.0,28.0,30.42,NE,52,2.0,3.0,66,0.00,,,0.00,,2013-03-07 22:12:00,
2013-03-07 16:22:00,38.0,28.0,30.42,SSW,199,0.0,0.0,66,0.00,,,0.00,,2013-03-07 22:22:00,
2013-03-07 16:32:00,38.0,28.0,30.41,NNE,22,0.0,1.0,66,0.00,,,0.00,,2013-03-07 22:32:00,
2013-03-07 16:53:00,38.0,28.0,30.41,NNE,22,1.0,2.0,66,0.00,,,0.00,,2013-03-07 22:53:00,
2013-03-07 17:02:00,37.0,27.0,30.42,NNE,19,3.0,4.0,66,0.00,,,0.00,,2013-03-07 23:02:00,
2013-03-07 17:12:00,37.0,27.0,30.42,NNE,19,3.0,4.0,66,0.00,,,0.00,,2013-03-07 23:12:00,
2013-03-07 17:22:00,37.0,27.0,30.42,NE,46,2.0,3.0,67,0.00,,,0.00,,2013-03-07 23:22:00,
2013-03-07 17:33:00,37.0,27.0,30.42,SSE,156,0.0,1.0,67,0.00,,,0.00,,2013-03-07 23:33:00,
2013-03-07 17:43:00,37.0,27.0,30.42,SSE,156,0.0,1.0,67,0.00,,,0.00,,2013-03-07 23:43:00,
2013-03-07 17:52:00,37.0,27.0,30.42,SSE,156,1.0,2.0,68,0.00,,,0.00,,2013-03-07 23:52:00,
2013-03-07 18:04:00,37.0,27.0,30.43,SSE,156,1.0,2.0,68,0.00,,,0.00,,2013-03-08 00:04:00,
2013-03-07 18:12:00,37.0,27.0,30.43,SSE,156,1.0,2.0,68,0.00,,,0.00,,2013-03-08 00:12:00,
2013-03-07 18:23:00,37.0,27.0,30.43,SSE,156,0.0,2.0,68,0.00,,,0.00,,2013-03-08 00:23:00,
2013-03-07 18:34:00,37.0,28.0,30.43,SSE,156,1.0,2.0,69,0.00,,,0.00,,2013-03-08 00:34:00,
2013-03-07 18:43:00,37.0,28.0,30.43,SSE,156,1.0,2.0,69,0.00,,,0.00,,2013-03-08 00:43:00,
2013-03-07 18:52:00,37.0,28.0,30.43,SSE,156,0.0,0.0,69,0.00,,,0.00,,2013-03-08 00:52:00,
2013-03-07 19:02:00,36.0,28.0,30.43,SSE,156,0.0,0.0,71,0.00,,,0.00,,2013-03-08 01:02:00,
2013-03-07 19:11:00,36.0,28.0,30.43,SSE,156,0.0,0.0,71,0.00,,,0.00,,2013-03-08 01:11:00,
2013-03-07 19:21:00,36.0,28.0,30.43,SSE,156,0.0,0.0,71,0.00,,,0.00,,2013-03-08 01:21:00,
2013-03-07 19:32:00,36.0,28.0,30.44,SSE,156,0.0,0.0,71,0.00,,,0.00,,2013-03-08 01:32:00,
2013-03-07 19:42:00,36.0,28.0,30.44,SSE,156,0.0,0.0,71,0.00,,,0.00,,2013-03-08 01:42:00,
2013-03-07 19:51:00,36.0,28.0,30.44,SSE,156,0.0,0.0,71,0.00,,,0.00,,2013-03-08 01:51:00,
2013-03-07 20:01:00,36.0,28.0,30.43,SSE,156,0.0,0.0,71,0.00,,,0.00,,2013-03-08 02:01:00,
2013-03-07 20:11:00,36.0,28.0,30.43,SSE,156,0.0,0.0,71,0.00,,,0.00,,2013-03-08 02:11:00,
2013-03-07 20:21:00,36.0,28.0,30.43,SSE,156,0.0,0.0,71,0.00,,,0.00,,2013-03-08 02:21:00,
2013-03-07 20:32:00,35.0,27.0,30.42,SSE,156,0.0,0.0,71,0.00,,,0.00,,2013-03-08 02:32:00,
2013-03-07 20:42:00,35.0,27.0,30.42,SSE,156,0.0,0.0,71,0.00,,,0.00,,2013-03-08 02:42:00,
2013-03-07 20:52:00,34.0,26.0,30.42,SSE,156,1.0,2.0,72,0.00,,,0.00,,2013-03-08 02:52:00,
2013-03-07 21:02:00,34.0,26.0,30.42,SSE,156,0.0,1.0,73,0.00,,,0.00,,2013-03-08 03:02:00,
2013-03-07 21:11:00,34.0,26.0,30.42,SSE,156,0.0,1.0,73,0.00,,,0.00,,2013-03-08 03:11:00,
2013-03-07 21:22:00,33.0,26.0,30.42,SSE,156,0.0,0.0,75,0.00,,,0.00,,2013-03-08 03:22:00,
2013-03-07 21:32:00,32.0,25.0,30.42,SSE,156,0.0,0.0,76,0.00,,,0.00,,2013-03-08 03:32:00,
2013-03-07 21:42:00,32.0,25.0,30.42,SSE,156,0.0,0.0,76,0.00,,,0.00,,2013-03-08 03:42:00,
2013-03-07 21:52:00,32.0,25.0,30.42,SSE,156,0.0,0.0,76,0.00,,,0.00,,2013-03-08 03:52:00,
2013-03-07 22:01:00,32.0,26.0,30.42,SSE,156,0.0,0.0,78,0.00,,,0.00,,2013-03-08 04:01:00,
2013-03-07 22:11:00,32.0,26.0,30.42,SSE,156,0.0,0.0,78,0.00,,,0.00,,2013-03-08 04:11:00,
2013-03-07 22:21:00,31.0,25.0,30.42,SSE,156,0.0,0.0,79,0.00,,,0.00,,2013-03-08 04:21:00,
2013-03-07 22:32:00,31.0,25.0,30.43,SSE,156,0.0,0.0,79,0.00,,,0.00,,2013-03-08 04:32:00,
2013-03-07 22:42:00,31.0,25.0,30.43,SSE,156,0.0,0.0,79,0.00,,,0.00,,2013-03-08 04:42:00,
2013-03-07 22:52:00,31.0,25.0,30.43,SSE,156,0.0,0.0,79,0.00,,,0.00,,2013-03-08 04:52:00,
2013-03-07 23:02:00,30.0,25.0,30.44,SSE,156,0.0,0.0,80,0.00,,,0.00,,2013-03-08 05:02:00,
2013-03-07 23:12:00,30.0,25.0,30.44,SSE,156,0.0,0.0,80,0.00,,,0.00,,2013-03-08 05:12:00,
2013-03-07 23:22:00,30.0,25.0,30.44,SSE,156,0.0,0.0,81,0.00,,,0.00,,2013-03-08 05:22:00,
2013-03-07 23:32:00,30.0,25.0,30.43,SSE,156,0.0,0.0,81,0.00,,,0.00,,2013-03-08 05:32:00,
2013-03-07 23:42:00,30.0,25.0,30.43,SSE,156,0.0,0.0,81,0.00,,,0.00,,2013-03-08 05:42:00,
2013-03-07 23:52:00,30.0,25.0,30.43,SSE,156,0.0,0.0,82,0.00,,,0.00,,2013-03-08 05:52:00,